Back to catalog

ST5-C

AliveScienceLEO
NORAD 28982·PAYLOAD·🇺🇸 United States

Launched Mar 22, 2006 from Vandenberg Space Force Base

Loading…

Next Passes (next 24 hours)

TLE

FreshSource: Space-Track

Epoch: Sep 14, 2026, 13:22 UTC

1 28982U 06008C   26257.55728594  .00060723  54385-5  62451-3 0  9999
2 28982 105.4528 172.8219 0726487  82.8827 285.4300 14.34922638568761

Track ST5-C in real time with AllMySat

Download on the App Store